Terminal Aerodrome Forecast
Issued by NWS

Home | Current Version | Previous Version | Text Only | Print | Product List | Glossary Off
Versions: 1 2 3 4 5 6 7 8 9 10 11 12 13 14 15

000
FTUS45 KGGW 151500 AAA
TAFSDY
TAF AMD
KSDY 151539Z 1516/1612 33010KT P6SM OVC009
     FM152000 33006KT P6SM BKN020
     FM160000 VRB03KT P6SM SCT020
      AMD LTD TO CLD VIS AND WIND=

USA.gov is the U.S. government's official web portal to all federal, state and local government web resources and services.